TimeEST,TemperatureF,Dew PointF,Humidity,Sea Level PressureIn,VisibilityMPH,Wind Direction,Wind SpeedMPH,Gust SpeedMPH,PrecipitationIn,Events,Conditions,WindDirDegrees,DateUTC
12:00 AM,19.4,10.4,68,30.11,2.5,ENE,3.5,-,0.00,Snow,Light Snow,60,2013-01-24 05:00:00
12:25 AM,19.4,12.2,74,30.10,1.8,East,3.5,-,0.00,Snow,Light Snow,80,2013-01-24 05:25:00
12:53 AM,19.0,12.9,77,30.11,1.5,East,4.6,-,0.00,Snow,Light Snow,80,2013-01-24 05:53:00
1:53 AM,18.0,12.9,81,30.10,1.5,ENE,3.5,-,0.00,Snow,Light Snow,60,2013-01-24 06:53:00
2:53 AM,18.0,14.0,84,30.11,1.5,NNE,3.5,-,0.01,Snow,Light Snow,30,2013-01-24 07:53:00
3:09 AM,17.6,12.2,79,30.08,2.0,NNE,4.6,-,0.00,Snow,Light Snow,30,2013-01-24 08:09:00
3:17 AM,17.6,12.2,79,30.08,1.5,NE,4.6,-,0.00,Snow,Light Snow,40,2013-01-24 08:17:00
3:38 AM,17.6,12.2,79,30.08,3.0,NNE,4.6,-,0.00,Snow,Light Snow,30,2013-01-24 08:38:00
3:49 AM,17.6,12.2,79,30.09,1.8,NNE,4.6,-,0.00,Snow,Light Snow,20,2013-01-24 08:49:00
3:53 AM,18.0,12.9,81,30.11,1.5,NNE,4.6,-,0.00,Snow,Light Snow,30,2013-01-24 08:53:00
4:42 AM,17.6,12.2,79,30.10,1.2,North,9.2,-,0.01,Snow,Light Snow,10,2013-01-24 09:42:00
4:53 AM,17.1,12.0,81,30.14,1.5,North,5.8,-,0.01,Snow,Light Snow,10,2013-01-24 09:53:00
5:14 AM,17.6,12.2,79,30.12,2.0,North,8.1,-,0.00,Snow,Light Snow,360,2013-01-24 10:14:00
5:35 AM,15.8,12.2,86,30.13,4.0,North,6.9,-,0.00,Snow,Light Snow,360,2013-01-24 10:35:00
5:53 AM,17.1,12.0,81,30.17,2.0,North,8.1,-,0.00,Snow,Light Snow,10,2013-01-24 10:53:00
6:06 AM,15.8,10.4,79,30.15,3.0,North,8.1,-,0.00,Snow,Light Snow,350,2013-01-24 11:06:00
6:25 AM,15.8,10.4,79,30.17,2.5,North,6.9,-,0.00,Snow,Light Snow,360,2013-01-24 11:25:00
6:33 AM,15.8,10.4,79,30.18,4.0,North,6.9,-,0.00,Snow,Light Snow,360,2013-01-24 11:33:00
6:53 AM,16.0,10.9,81,30.22,7.0,NNW,4.6,-,0.00,,Overcast,340,2013-01-24 11:53:00
7:53 AM,16.0,10.9,81,30.27,3.0,North,4.6,-,N/A,,Haze,350,2013-01-24 12:53:00
8:24 AM,17.6,10.4,73,30.26,1.8,North,6.9,-,N/A,,Haze,10,2013-01-24 13:24:00
8:37 AM,17.6,10.4,73,30.27,3.0,North,5.8,-,N/A,,Haze,10,2013-01-24 13:37:00
8:53 AM,18.0,10.9,74,30.31,7.0,North,5.8,-,N/A,,Scattered Clouds,360,2013-01-24 13:53:00
9:53 AM,19.9,8.1,60,30.34,10.0,NNW,13.8,19.6,N/A,,Clear,330,2013-01-24 14:53:00
10:53 AM,21.9,8.1,55,30.37,10.0,NW,13.8,-,N/A,,Partly Cloudy,320,2013-01-24 15:53:00
11:53 AM,24.1,5.0,44,30.38,10.0,NW,17.3,23.0,N/A,,Partly Cloudy,320,2013-01-24 16:53:00
12:53 PM,25.0,1.9,37,30.40,10.0,NNW,19.6,25.3,N/A,,Overcast,330,2013-01-24 17:53:00
1:53 PM,25.0,1.0,36,30.40,10.0,NW,18.4,28.8,N/A,,Mostly Cloudy,320,2013-01-24 18:53:00
2:53 PM,25.0,1.0,36,30.42,10.0,NW,18.4,27.6,N/A,,Mostly Cloudy,320,2013-01-24 19:53:00
3:53 PM,24.1,1.0,37,30.45,10.0,NW,17.3,24.2,N/A,,Partly Cloudy,320,2013-01-24 20:53:00
4:53 PM,24.1,-0.0,35,30.46,10.0,NW,10.4,-,N/A,,Partly Cloudy,320,2013-01-24 21:53:00
5:53 PM,23.0,-0.0,37,30.50,5.0,NW,10.4,19.6,N/A,,Haze,320,2013-01-24 22:53:00
6:53 PM,21.0,-0.0,40,30.52,10.0,WNW,4.6,-,N/A,,Clear,300,2013-01-24 23:53:00
7:53 PM,19.0,-0.0,43,30.53,10.0,WNW,8.1,-,N/A,,Clear,300,2013-01-25 00:53:00
8:53 PM,19.9,-4.0,35,30.53,10.0,NW,10.4,-,N/A,,Clear,320,2013-01-25 01:53:00
9:53 PM,19.0,-5.1,34,30.53,10.0,WNW,5.8,-,N/A,,Clear,300,2013-01-25 02:53:00
10:53 PM,19.0,-5.1,34,30.53,10.0,NNW,8.1,-,N/A,,Clear,330,2013-01-25 03:53:00
11:53 PM,17.1,-4.0,39,30.53,10.0,WNW,3.5,-,N/A,,Clear,290,2013-01-25 04:53:00